TimeWEST,TemperatureF,Dew PointF,Humidity,Sea Level PressureIn,VisibilityMPH,Wind Direction,Wind SpeedMPH,Gust SpeedMPH,PrecipitationIn,Events,Conditions,WindDirDegrees,DateUTC
12:00 AM,69.8,60.8,73,30.06,6.2,West,3.5,-,N/A,,Partly Cloudy,280,2013-09-06 23:00:00
12:30 AM,69.8,64.4,83,30.04,5.6,East,11.5,-,N/A,,Partly Cloudy,100,2013-09-06 23:30:00
1:00 AM,68,62,76,29.96,6,NNE,8.1,,,,Clear,20,2013-09-07 00:00:00
1:00 AM,68.0,62.6,83,30.01,6.2,North,6.9,-,N/A,,Mostly Cloudy,360,2013-09-07 00:00:00
1:30 AM,68.0,60.8,78,30.01,6.2,North,10.4,-,N/A,,Scattered Clouds,10,2013-09-07 00:30:00
2:00 AM,69.8,62.6,78,30.01,6.2,WNW,4.6,-,N/A,,Scattered Clouds,300,2013-09-07 01:00:00
2:30 AM,66.2,62.6,88,30.04,6.2,SW,8.1,-,N/A,,Scattered Clouds,230,2013-09-07 01:30:00
3:00 AM,66.2,62.6,88,30.01,6.2,SW,8.1,-,N/A,,Scattered Clouds,230,2013-09-07 02:00:00
3:30 AM,66.2,62.6,88,30.01,6.2,WSW,3.5,-,N/A,,Scattered Clouds,240,2013-09-07 02:30:00
4:00 AM,65,62,86,29.97,6,SW,6.9,,,,Clear,230,2013-09-07 03:00:00
4:00 AM,66.2,62.6,88,30.01,6.2,SW,5.8,-,N/A,,Scattered Clouds,230,2013-09-07 03:00:00
4:30 AM,64.4,62.6,94,30.01,6.2,SW,4.6,-,N/A,,Scattered Clouds,230,2013-09-07 03:30:00
5:00 AM,64.4,60.8,88,30.01,6.2,SW,6.9,-,N/A,,Scattered Clouds,220,2013-09-07 04:00:00
5:30 AM,64.4,60.8,88,30.01,6.2,SW,6.9,-,N/A,,Scattered Clouds,220,2013-09-07 04:30:00
6:00 AM,64.4,60.8,88,30.01,6.2,SW,6.9,-,N/A,,Scattered Clouds,220,2013-09-07 05:00:00
6:30 AM,66.2,60.8,83,30.01,6.2,SW,5.8,-,N/A,,Scattered Clouds,220,2013-09-07 05:30:00
7:00 AM,66,62,81,29.96,6,WSW,4.6,,,,Mostly Cloudy,240,2013-09-07 06:00:00
7:00 AM,66.2,60.8,83,30.01,6.2,SW,4.6,-,N/A,,Scattered Clouds,230,2013-09-07 06:00:00
7:30 AM,64.4,60.8,88,30.01,6.2,Variable,2.3,-,N/A,,Scattered Clouds,0,2013-09-07 06:30:00
8:00 AM,64.4,60.8,88,30.01,6.2,WSW,3.5,-,N/A,,Scattered Clouds,240,2013-09-07 07:00:00
8:30 AM,64.4,62.6,94,30.04,6.2,West,4.6,-,N/A,,Scattered Clouds,260,2013-09-07 07:30:00
9:00 AM,64.4,60.8,88,30.04,6.2,SW,4.6,-,N/A,,Scattered Clouds,220,2013-09-07 08:00:00
9:30 AM,66.2,62.6,88,30.04,6.2,SW,3.5,-,N/A,,Scattered Clouds,220,2013-09-07 08:30:00
10:00 AM,66,62,85,30.01,6,WSW,3.5,,,,,250,2013-09-07 09:00:00
10:00 AM,66.2,62.6,88,30.06,6.2,WSW,3.5,-,N/A,,Unknown,250,2013-09-07 09:00:00
10:30 AM,68.0,62.6,83,30.06,6.2,SW,3.5,-,N/A,,Scattered Clouds,230,2013-09-07 09:30:00
11:00 AM,69.8,62.6,78,30.06,6.2,Variable,2.3,-,N/A,,Scattered Clouds,0,2013-09-07 10:00:00
11:30 AM,71.6,62.6,73,30.06,6.2,Variable,2.3,-,N/A,,Scattered Clouds,0,2013-09-07 10:30:00
12:00 PM,71.6,62.6,73,30.06,6.2,ENE,4.6,-,N/A,,Scattered Clouds,60,2013-09-07 11:00:00
1:00 PM,73,63,63,30.00,6,ESE,8.1,,,,Mostly Cloudy,110,2013-09-07 12:00:00
1:00 PM,73.4,62.6,69,30.06,6.2,East,8.1,-,N/A,,Scattered Clouds,100,2013-09-07 12:00:00
1:30 PM,73.4,62.6,69,30.04,6.2,East,5.8,-,N/A,,Scattered Clouds,80,2013-09-07 12:30:00
2:00 PM,75.2,62.6,65,30.04,6.2,East,6.9,-,N/A,,Scattered Clouds,90,2013-09-07 13:00:00
2:30 PM,75.2,62.6,65,30.01,6.2,ENE,8.1,-,N/A,,Scattered Clouds,60,2013-09-07 13:30:00
3:00 PM,78.8,62.6,57,30.01,6.2,NE,9.2,-,N/A,,Scattered Clouds,50,2013-09-07 14:00:00
3:30 PM,78.8,62.6,57,30.01,6.2,NE,9.2,-,N/A,,Scattered Clouds,40,2013-09-07 14:30:00
4:00 PM,81,62,43,29.90,6,NNE,6.9,,,,Partly Cloudy,30,2013-09-07 15:00:00
4:00 PM,80.6,62.6,54,29.98,6.2,NE,6.9,-,N/A,,Scattered Clouds,40,2013-09-07 15:00:00
4:30 PM,82.4,60.8,48,29.98,6.2,NE,5.8,-,N/A,,Scattered Clouds,50,2013-09-07 15:30:00
5:00 PM,82.4,60.8,48,29.95,6.2,ENE,8.1,-,N/A,,Scattered Clouds,60,2013-09-07 16:00:00
5:30 PM,84.2,59.0,42,29.95,6.2,East,5.8,-,N/A,,Scattered Clouds,80,2013-09-07 16:30:00
6:00 PM,84.2,59.0,42,29.95,6.2,Variable,3.5,-,N/A,,Scattered Clouds,0,2013-09-07 17:00:00
6:30 PM,84.2,59.0,42,29.95,6.2,NE,4.6,-,N/A,,Scattered Clouds,50,2013-09-07 17:30:00
7:00 PM,84,58,31,29.86,6,East,3.5,,,,Partly Cloudy,90,2013-09-07 18:00:00
7:00 PM,84.2,59.0,42,29.95,6.2,ENE,3.5,-,N/A,,Scattered Clouds,70,2013-09-07 18:00:00
7:30 PM,84.2,59.0,42,29.95,6.2,NNE,5.8,-,N/A,,Scattered Clouds,30,2013-09-07 18:30:00
8:00 PM,82.4,57.2,42,29.95,6.2,NE,4.6,-,N/A,,Scattered Clouds,40,2013-09-07 19:00:00
8:30 PM,82.4,57.2,42,29.98,6.2,NNE,5.8,-,N/A,,Scattered Clouds,30,2013-09-07 19:30:00
9:00 PM,82.4,57.2,42,29.98,6.2,ENE,3.5,-,N/A,,Scattered Clouds,70,2013-09-07 20:00:00
9:30 PM,82.4,57.2,42,30.01,6.2,East,3.5,-,N/A,,Scattered Clouds,80,2013-09-07 20:30:00
10:00 PM,81,59,37,29.93,6,ENE,5.8,,,,Partly Cloudy,60,2013-09-07 21:00:00
10:00 PM,80.6,59.0,48,30.01,6.2,ENE,5.8,-,N/A,,Scattered Clouds,60,2013-09-07 21:00:00
10:30 PM,77.0,62.6,61,30.04,6.2,North,13.8,-,N/A,,Unknown,360,2013-09-07 21:30:00
11:00 PM,73.4,62.6,69,30.04,6.2,NNE,10.4,-,N/A,,Scattered Clouds,20,2013-09-07 22:00:00
11:30 PM,73.4,62.6,69,30.04,6.2,NNE,9.2,-,N/A,,Scattered Clouds,30,2013-09-07 22:30:00